This demonstration page uses our WeatherBlox Daily Observations layout. Learn more.

Left ArrowRight Arrow

Hourly Observations for February 5, 2022

Temp ( °F °C ) Dew Point ( °F °C ) Humidity (%) Winds ( mph kmh ) Pressure ( in mb ) Visibility ( mi km ) Precip ( " mm )
12:56 am 00:56 Clear 18 -7.8 9 -12.8 68 68 S 12 19 30.37 1028 10 16 0.00 0.00
1:56 am 01:56 Clear 16 -8.9 9 -12.8 74 74 S 12 19 30.32 1027 10 16 0.00 0.00
2:56 am 02:56 Clear 19 -7.2 11 -11.7 71 71 SSW 9 15 30.28 1025 10 16 0.00 0.00
3:56 am 03:56 Clear 17 -8.3 10 -12.2 74 74 SSW 8 13 30.25 1024 10 16 0.00 0.00
4:56 am 04:56 Clear 20 -6.7 12 -11.1 71 71 SSW 14 22 30.21 1023 10 16 0.00 0.00
5:56 am 05:56 Clear 18 -7.8 11 -11.7 74 74 SSW 13 20 30.19 1022 10 16 0.00 0.00
6:56 am 06:56 Clear 18 -7.8 11 -11.7 74 74 SW 7 11 30.18 1022 10 16 0.00 0.00
7:56 am 07:56 Sunny 18 -7.8 12 -11.1 77 77 WSW 6 9 30.16 1021 10 16 0.00 0.00
8:56 am 08:56 Sunny 24 -4.4 14 -10 65 65 SW 14 22 30.15 1021 10 16 0.00 0.00
9:56 am 09:56 Sunny 33 0.6 15 -9.4 47 47 SW 14 22 30.11 1020 10 16 0.00 0.00
10:56 am 10:56 Sunny 38 3.3 16 -8.9 41 41 WSW 10 17 30.10 1019 10 16 0.00 0.00
11:56 am 11:56 Sunny 46 7.8 17 -8.3 31 31 W 10 17 30.06 1018 10 16 0.00 0.00
12:56 pm 12:56 Sunny 52 11.1 17 -8.3 25 25 W 8 13 30.02 1017 10 16 0.00 0.00
1:56 pm 13:56 Sunny 54 12.2 17 -8.3 23 23 WNW 6 9 29.99 1016 10 16 0.00 0.00
2:56 pm 14:56 Sunny 56 13.3 18 -7.8 22 22 W 6 9 29.96 1014 10 16 0.00 0.00
3:56 pm 15:56 Sunny 56 13.3 18 -7.8 22 22 Calm 29.95 1014 10 16 0.00 0.00
4:56 pm 16:56 Sunny 56 13.3 18 -7.8 22 22 Calm 29.95 1014 10 16 0.00 0.00
5:56 pm 17:56 Sunny 46 7.8 18 -7.8 32 32 N 8 13 29.98 1015 10 16 0.00 0.00
6:56 pm 18:56 Clear 40 4.4 14 -10 35 35 E 8 13 30.00 1016 10 16 0.00 0.00
7:56 pm 19:56 Clear 38 3.3 15 -9.4 39 39 S 3 6 30.01 1016 10 16 0.00 0.00
8:56 pm 20:56 Clear 34 1.1 14 -10 44 44 Calm 30.03 1017 10 16 0.00 0.00
9:56 pm 21:56 Partly Cloudy 31 -0.6 15 -9.4 52 52 NW 5 7 30.02 1017 10 16 0.00 0.00
10:56 pm 22:56 Clear 29 -1.7 16 -8.9 58 58 WNW 10 17 30.03 1017 10 16 0.00 0.00
11:56 pm 23:56 Clear 29 -1.7 17 -8.3 61 61 NW 10 17 30.03 1017 10 16 0.00 0.00

Powered by AerisWeather